#timestamp,LO_Frequency,Hit,StdDev 
1669082415.8,286047002.7,N
1669082435.6,286047001.6,N
1669082455.4,286047002.3,N
1669082475.3,286047001.6,N
1669082495.1,286047001.9,N
1669082515.8,286047002.1,N
1669082535.7,286046999.7,N
1669082555.5,286047001.9,N
1669082575.4,286047002.5,N
1669082595.2,286047000.2,N
1669082615.0,286046998.3,N
1669082615.9,286046998.3,N
1669082635.8,286047001.1,N
1669082655.6,286047000.7,N
1669082675.4,286047001.2,N
1669082695.3,286046998.1,N
1669082715.1,286047000.6,N
1669082735.9,286047002.8,N
1669082755.7,286047001.6,N
1669082775.5,286046998.1,N
1669082795.4,286046999.8,N
1669082815.2,286047002.5,N
1669082835.0,286047001.9,N
1669082836.0,286047001.9,N
1669082855.8,286047002.0,N
1669082875.6,286047001.9,N
1669082895.5,286047002.5,N
1669082915.3,286047002.5,N
1669082935.1,286046999.7,N
1669082955.9,286047001.4,N
1669082975.7,286047002.7,N
1669082995.6,286047000.1,N
1669083015.4,286047000.2,N
1669083035.2,286047002.3,N
1669083055.1,286047004.3,N
1669083056.0,286047004.3,N
1669083075.8,286047001.3,N
1669083095.6,286047001.0,N
1669083115.5,286046999.7,N
1669083135.3,286047001.7,N
1669083155.2,286047003.9,N
1669083175.9,286047001.7,N
1669083195.7,286047001.4,N
1669083215.6,286047004.3,N
1669083235.4,286047001.3,N
1669083255.2,286047001.6,N
1669083275.1,286047003.5,N
1669083276.0,286047003.5,N
1669083295.8,286047004.2,N
1669083315.7,286047001.5,N
1669083335.5,286047003.9,N
1669083355.3,286047003.7,N
1669083375.2,286047003.9,N
1669083395.0,286047004.4,Y
1669083395.9,286047004.4,P
1669083415.7,286047001.2,N
1669083435.6,286046998.3,N
1669083455.4,286046998.6,N
1669083475.3,286046999.3,N
1669083495.1,286046999.1,N
1669083496.0,286046999.1,N
1669083515.8,286046996.5,N
1669083535.7,286046997.2,N
1669083555.5,286046999.5,N
1669083575.3,286046999.5,N
1669083595.2,286046999.1,N
1669083615.0,286046998.6,N
1669083615.9,286046998.6,N
1669083635.8,286046999.1,N
1669083655.6,286046998.8,N
1669083675.4,286046998.1,N
1669083695.3,286046998.9,N
1669083715.1,286046998.8,N
1669083735.8,286046996.6,N
1669083755.7,286046996.5,N
1669083775.5,286046998.4,N
1669083795.4,286047000.7,N
1669083815.2,286046999.5,N
1669083835.0,286046998.7,N
1669083835.9,286046998.7,N
1669083855.8,286047001.1,N
1669083875.6,286046998.4,N
1669083895.5,286046999.5,N
1669083915.3,286046998.6,N
1669083935.1,286047000.6,N
1669083955.9,286046999.9,N
1669083975.7,286047001.2,N
1669083995.5,286047001.1,N
1669084015.4,286047001.0,N
1669084035.2,286047000.9,N
1669084055.1,286047000.5,N
1669084056.0,286047000.5,N
1669084075.8,286046999.8,N
1669084095.6,286046999.7,N
1669084115.5,286046999.8,N
1669084135.3,286047002.5,N
1669084155.2,286047002.7,N
1669084175.9,286046998.1,N
1669084195.7,286047000.5,N
1669084215.6,286047001.2,N
1669084235.4,286046998.1,N
1669084255.3,286047000.6,N
1669084275.1,286047000.4,N
1669084276.0,286047000.4,N
1669084295.8,286047000.8,N
1669084315.7,286047000.8,N
1669084335.5,286047000.6,N
1669084355.3,286047000.1,N
1669084375.2,286047000.5,N
1669084395.0,286047000.9,N
1669084395.9,286047000.9,N
1669084415.8,286047001.0,N
1669084435.6,286047002.4,N
1669084455.4,286047002.8,N
1669084475.3,286047001.3,N
1669084495.1,286047000.2,N
1669084515.8,286047000.1,N
1669084535.7,286046999.9,N
1669084555.5,286047000.2,N
1669084575.4,286046999.7,N
1669084595.2,286047002.2,N
1669084615.0,286047002.6,N
1669084615.9,286047002.6,N
1669084635.8,286047001.9,N
1669084655.6,286047002.5,N
1669084675.5,286047002.8,N
1669084695.3,286047000.2,N
1669084715.1,286047002.3,N
1669084735.9,286046999.8,N
1669084755.7,286046999.9,N
1669084775.6,286047000.1,N
1669084795.4,286047002.4,N
1669084815.2,286047002.3,N
1669084835.1,286047002.6,N
1669084836.0,286047002.6,N
1669084855.8,286047000.3,N
1669084875.6,286047000.4,N
1669084895.5,286047002.7,N
1669084915.3,286047002.8,N
1669084935.2,286047002.5,N
1669084955.9,286047002.4,N
1669084975.7,286047002.1,N
1669084995.6,286047002.0,N
1669085015.4,286047000.5,N
1669085035.3,286047002.8,N
1669085055.1,286047001.6,N
1669085056.0,286047001.6,N
1669085075.8,286047002.5,N
1669085095.7,286047000.0,N
1669085115.5,286047001.8,N
1669085135.3,286047001.3,N
1669085155.2,286047001.6,N
1669085175.0,286047002.8,N
1669085175.9,286047002.8,N
1669085195.8,286047001.8,N
1669085215.6,286047003.1,N
1669085235.4,286047003.2,Y
1669085255.3,286046999.8,P
1669085275.1,286047000.3,N
1669085295.9,286046999.7,N
1669085315.7,286047000.2,N
1669085335.5,286047001.1,N
1669085355.4,286047000.2,N
1669085375.2,286047000.3,N
1669085395.0,286047000.9,N
1669085395.9,286047000.9,N
1669085415.8,286046998.3,N
1669085435.6,286047000.8,N
1669085455.5,286047000.3,N
1669085475.3,286047000.5,N
1669085495.1,286047000.8,N
1669085515.9,286047000.0,N
1669085535.7,286047000.5,N
1669085555.5,286047000.6,N
1669085575.4,286046999.4,N
1669085595.2,286046998.9,N
1669085615.1,286046998.3,N
1669085616.0,286046998.3,N
1669085635.8,286046998.4,N
1669085655.6,286047001.1,N
1669085675.5,286046999.9,N
1669085695.3,286047000.4,N
1669085715.1,286046999.9,N
1669085735.9,286047000.4,N
1669085755.7,286047000.4,N
1669085775.6,286047000.8,N
1669085795.4,286046999.9,N
1669085815.2,286046999.9,N
1669085835.1,286046999.7,N
1669085836.0,286046999.7,N
1669085855.8,286047000.6,N
1669085875.6,286047000.1,N
1669085895.5,286046999.9,N
1669085915.3,286046999.9,N
1669085935.2,286047000.0,N
1669085955.9,286047000.5,N
1669085975.7,286047002.8,Y
1669085995.6,286047003.9,P
